Weather History for KC75 - April, 2013

Change the Weather History Date:

Friday, April 5, 2013

  Actual Average (KPIA) Record (KPIA)
Temperature  
Mean Temperature 45 °F 48 °F  
Max Temperature 57 °F 59 °F 85 °F (1929)
Min Temperature 33 °F 38 °F 14 °F (1920)
Degree Days  
Heating Degree Days 20 17  
Month to date heating degree days 87  
Since 1 July heating degree days 5359  
Cooling Degree Days 0 0  
Month to date cooling degree days 0  
Year to date cooling degree days 1  
Moisture  
Dew Point 26 °F    
Average Humidity 50    
Maximum Humidity 83    
Minimum Humidity 24    
Precipitation  
Precipitation 0.00 in 0.12 in 2.92 in (1947)
Month to date precipitation 0.57  
Year to date precipitation 6.94  
Snow  
Snow 0.00 in 0.00 in 4.90 in (1982)
Month to date snowfall 0.2  
Since 1 July snowfall 24.2  
Snow Depth -    
Sea Level Pressure  
Sea Level Pressure 30.12 in    
Wind  
Wind Speed 5 mph (NE)    
Max Wind Speed 18 mph    
Max Gust Speed 26 mph    
Visibility 10 miles    
Events      
T = Trace of Precipitation, MM = Missing Value Source: NWS Daily Summary

Daily Weather History Graph

Daily Weather History Graph

Search for Another Location

Airport or City:

Trip Planner

Search our weather history database for the weather conditions in past years. The results will help you decide how hot, cold, wet, or windy it might be!

Date:

Astronomy

Apr. 05, 2013 Rise Set
Actual Time 6:33 AM CDT 7:27 PM CDT
Civil Twilight 6:05 AM CDT 7:55 PM CDT
Nautical Twilight 5:32 AM CDT 8:28 PM CDT
Astronomical Twilight 4:58 AM CDT 9:02 PM CDT
Moon 3:43 AM CDT (4/5) 2:48 PM CDT (4/5)
Length of Visible Light 13h 49m
Length of Day
12h 53m
Waning Crescent, 23% of the Moon is Illuminated
Apr 5
Waning Crescent
Apr 10
New
Apr 18
First Quarter
Apr 25
Full
May 2
Last Quarter

Hourly Weather History & Observations

Time (CDT) Temp. Windchill Dew Point Humidity Pressure Visibility Wind Dir Wind Speed Gust Speed Precip Events Conditions
12:15 AM 39.6 °F - 28.4 °F 64% 30.03 in 10.0 mi Calm Calm - N/A   Clear
12:35 AM 41.5 °F 39.6 °F 30.7 °F 65% 30.03 in 10.0 mi NNW 3.5 mph - N/A   Clear
12:55 AM 45.0 °F 40.6 °F 34.7 °F 67% 30.04 in 10.0 mi North 8.1 mph - N/A   Clear
1:15 AM 44.2 °F 41.0 °F 34.2 °F 68% 30.05 in 10.0 mi North 5.8 mph - N/A   Clear
1:35 AM 43.3 °F 41.7 °F 34.0 °F 70% 30.05 in 10.0 mi North 3.5 mph - N/A   Clear
1:55 AM 42.8 °F 38.6 °F 33.6 °F 70% 30.05 in 10.0 mi North 6.9 mph - N/A   Clear
2:15 AM 41.9 °F 39.0 °F 32.9 °F 70% 30.05 in 10.0 mi North 4.6 mph - N/A   Clear
2:35 AM 39.6 °F - 32.0 °F 74% 30.05 in 10.0 mi Calm Calm - N/A   Clear
2:55 AM 39.2 °F - 32.0 °F 75% 30.06 in 10.0 mi Calm Calm - N/A   Clear
3:15 AM 38.5 °F - 32.0 °F 78% 30.06 in 10.0 mi Calm Calm - N/A   Clear
3:35 AM 36.9 °F - 31.3 °F 80% 30.07 in 10.0 mi Calm Calm - N/A   Clear
3:55 AM 37.0 °F - 31.8 °F 81% 30.08 in 10.0 mi Calm Calm - N/A   Clear
4:15 AM 37.9 °F - 32.0 °F 79% 30.08 in 10.0 mi Calm Calm - N/A   Clear
4:35 AM 36.5 °F 31.8 °F 31.3 °F 81% 30.09 in 10.0 mi North 5.8 mph - N/A   Clear
4:55 AM 36.9 °F 32.2 °F 31.3 °F 80% 30.10 in 10.0 mi NNW 5.8 mph - N/A   Clear
5:15 AM 36.5 °F 32.7 °F 31.1 °F 81% 30.11 in 10.0 mi NNW 4.6 mph - N/A   Clear
5:35 AM 36.0 °F 33.3 °F 30.9 °F 82% 30.12 in 10.0 mi North 3.5 mph - N/A   Clear
5:55 AM 35.6 °F 32.8 °F 30.4 °F 81% 30.13 in 10.0 mi North 3.5 mph - N/A   Clear
6:15 AM 35.1 °F 32.2 °F 29.8 °F 81% 30.13 in 10.0 mi North 3.5 mph - N/A   Clear
6:35 AM 34.7 °F 28.8 °F 29.3 °F 81% 30.14 in 10.0 mi North 6.9 mph - N/A   Clear
6:55 AM 33.8 °F 29.6 °F 29.1 °F 83% 30.15 in 10.0 mi North 4.6 mph - N/A   Clear
7:15 AM 34.9 °F - 29.5 °F 81% 30.16 in 10.0 mi Calm Calm - N/A   Clear
7:35 AM 37.0 °F 33.3 °F 29.3 °F 74% 30.17 in 10.0 mi NNE 4.6 mph - N/A   Clear
7:55 AM 38.3 °F 35.9 °F 30.0 °F 72% 30.18 in 10.0 mi NE 3.5 mph - N/A   Clear
8:15 AM 39.2 °F 33.0 °F 29.8 °F 69% 30.18 in 10.0 mi NE 9.2 mph - N/A   Clear
8:35 AM 40.3 °F 33.9 °F 28.8 °F 63% 30.18 in 10.0 mi NE 10.4 mph 17.3 mph N/A   Clear
8:55 AM 41.7 °F 35.6 °F 28.4 °F 59% 30.18 in 10.0 mi ENE 10.4 mph - N/A   Clear
9:15 AM 43.2 °F 37.4 °F 28.2 °F 56% 30.18 in 10.0 mi ENE 10.4 mph 16.1 mph N/A   Clear
9:35 AM 44.8 °F 40.4 °F 28.6 °F 53% 30.19 in 10.0 mi NE 8.1 mph - N/A   Clear
9:55 AM 45.3 °F 40.6 °F 28.4 °F 52% 30.20 in 10.0 mi ENE 9.2 mph - N/A   Clear
10:15 AM 46.6 °F - 28.9 °F 50% 30.20 in 10.0 mi ENE 9.2 mph - N/A   Clear
10:35 AM 47.5 °F - 28.2 °F 47% 30.21 in 10.0 mi ENE 10.4 mph - N/A   Clear
10:55 AM 48.9 °F - 28.0 °F 44% 30.21 in 10.0 mi NE 9.2 mph - N/A   Clear
11:15 AM 49.1 °F - 27.9 °F 44% 30.21 in 10.0 mi ENE 9.2 mph - N/A   Clear
11:35 AM 50.4 °F - 27.5 °F 41% 30.20 in 10.0 mi NNE 9.2 mph - N/A   Clear
11:55 AM 50.4 °F - 26.4 °F 39% 30.20 in 10.0 mi North 5.8 mph - N/A   Clear
12:15 PM 51.8 °F - 27.1 °F 39% 30.19 in 10.0 mi East 9.2 mph - N/A   Clear
12:35 PM 51.8 °F - 25.7 °F 36% 30.18 in 10.0 mi North 5.8 mph - N/A   Clear
12:55 PM 52.5 °F - 24.6 °F 34% 30.17 in 10.0 mi NNE 4.6 mph - N/A   Clear
1:15 PM 53.4 °F - 25.7 °F 34% 30.16 in 10.0 mi NNW 4.6 mph - N/A   Clear
1:35 PM 54.5 °F - 25.2 °F 32% 30.15 in 10.0 mi East 9.2 mph - N/A   Clear
1:55 PM 54.0 °F - 24.1 °F 31% 30.14 in 10.0 mi SE 3.5 mph - N/A   Clear
2:15 PM 55.4 °F - 23.4 °F 29% 30.13 in 10.0 mi ESE 3.5 mph - N/A   Clear
2:35 PM 55.6 °F - 23.4 °F 29% 30.13 in 10.0 mi East 6.9 mph - N/A   Clear
2:55 PM 55.6 °F - 23.9 °F 29% 30.13 in 10.0 mi WSW 3.5 mph - N/A   Clear
3:15 PM 55.6 °F - 22.1 °F 27% 30.13 in 10.0 mi NW 6.9 mph - N/A   Clear
3:35 PM 56.1 °F - 21.0 °F 26% 30.12 in 10.0 mi Calm Calm - N/A   Clear
3:55 PM 56.8 °F - 21.0 °F 25% 30.11 in 10.0 mi Calm Calm - N/A   Clear
4:15 PM 56.5 °F - 20.5 °F 25% 30.11 in 10.0 mi East 4.6 mph - N/A   Clear
4:35 PM 57.2 °F - 20.8 °F 24% 30.10 in 10.0 mi Calm Calm - N/A   Clear
4:55 PM 57.0 °F - 20.1 °F 24% 30.11 in 10.0 mi North 4.6 mph - N/A   Clear
5:15 PM 56.7 °F - 20.3 °F 24% 30.10 in 10.0 mi East 4.6 mph - N/A   Clear
5:35 PM 56.7 °F - 19.9 °F 24% 30.11 in 10.0 mi NE 3.5 mph - N/A   Scattered Clouds
5:55 PM 55.9 °F - 19.8 °F 24% 30.11 in 10.0 mi NE 4.6 mph - N/A   Scattered Clouds
6:15 PM 55.6 °F - 21.6 °F 27% 30.11 in 10.0 mi East 3.5 mph - N/A   Scattered Clouds
6:35 PM 54.9 °F - 21.2 °F 27% 30.11 in 10.0 mi ENE 5.8 mph - N/A   Clear
6:55 PM 54.9 °F - 20.8 °F 27% 30.10 in 10.0 mi East 6.9 mph - N/A   Clear
7:15 PM 53.6 °F - 21.6 °F 29% 30.10 in 10.0 mi East 9.2 mph - N/A   Scattered Clouds
7:35 PM 52.0 °F - 21.4 °F 30% 30.10 in 10.0 mi East 9.2 mph - N/A   Scattered Clouds
7:55 PM 50.4 °F - 21.4 °F 32% 30.10 in 10.0 mi East 11.5 mph 16.1 mph N/A   Scattered Clouds
8:15 PM 48.4 °F - 21.4 °F 35% 30.10 in 10.0 mi East 13.8 mph 20.7 mph N/A   Mostly Cloudy
8:35 PM 46.8 °F - 21.9 °F 37% 30.10 in 10.0 mi East 12.7 mph 17.3 mph N/A   Mostly Cloudy
8:55 PM 46.2 °F 39.5 °F 20.1 °F 35% 30.08 in 10.0 mi ESE 16.1 mph 21.9 mph N/A   Mostly Cloudy
9:15 PM 45.3 °F 38.7 °F 21.0 °F 38% 30.10 in 10.0 mi ESE 15.0 mph - N/A   Overcast
9:35 PM 44.1 °F 37.1 °F 20.7 °F 39% 30.10 in 10.0 mi ESE 15.0 mph 21.9 mph N/A   Mostly Cloudy
9:55 PM 43.0 °F 34.8 °F 20.1 °F 40% 30.10 in 10.0 mi ESE 18.4 mph 26.5 mph N/A   Mostly Cloudy
10:15 PM 42.4 °F 35.7 °F 21.2 °F 43% 30.10 in 10.0 mi ESE 12.7 mph 20.7 mph N/A   Mostly Cloudy
10:35 PM 41.9 °F 34.6 °F 20.8 °F 43% 30.09 in 10.0 mi ESE 13.8 mph - N/A   Overcast
10:55 PM 41.5 °F 35.9 °F 20.3 °F 43% 30.10 in 10.0 mi ESE 9.2 mph 17.3 mph N/A   Overcast
11:15 PM 41.0 °F 35.8 °F 19.9 °F 43% 30.10 in 10.0 mi ESE 8.1 mph 16.1 mph N/A   Overcast
11:35 PM 40.6 °F 33.4 °F 17.8 °F 40% 30.10 in 10.0 mi ESE 12.7 mph - N/A   Overcast
11:55 PM 40.1 °F 34.7 °F 19.0 °F 43% 30.10 in 10.0 mi East 8.1 mph - N/A   Mostly Cloudy